Home > Time Zones > World Clock > Weather > Norway > Oslo > Past weeks

Flag for Norway Weather past 2 weeks in Oslo, Norway

Now
34 °F

Chilly.


Feels Like: 29 °F
Forecast: 28 / 35 °F
Wind: 6 mph from South

Location: Oslo-Blindern

Current Time: Jan 28, 2015 at 5:49:09 PM

Latest Report: Jan 28, 2015 at 5:00 PM


Visibility: N/A

Pressure: 28.88 "Hg

Humidity: 95%

Dew point: 33 °F

Location of OsloLocation

Historic Weather in Oslo — Graph

°F

Oslo temperature yesterday

Maximum temperature yesterday: 33 °F (at 12:00 PM)
Minimum temperature yesterday: 26 °F (at 7:00 AM)
Average temperature yesterday: 29 °F

Past Weeks' High & Low Weather Summary

 TemperatureHumidityPressure
High42 °F (Jan 16, 2:00 PM)100% (Jan 26, 12:00 AM)30.27 "Hg (Jan 26, 12:00 AM)
Low10 °F (Jan 23, 7:00 AM)70% (Jan 13, 7:00 PM)28.82 "Hg (Jan 16, 7:00 AM)
Average30 °F90%29.71 "Hg
* Reported Jan 13 4:00 PM — Jan 28 4:00 PM, Oslo, Weather by CustomWeather, © 2014

Note: Actual official high and low records may vary slightly from our data, if they occured in-between our weather recording intervals... More about our weather records

Advertising

Oslo weather history for previous 24 hours

 ConditionsComfort  
Time TempWeatherWind HumidityBarometerVisibility
4:00 PM
Jan 28
37 °FLight rain. Low clouds.7 mph93%28.91 "Hg9 mi
3:00 PM38 °FChilly.6 mph93%28.97 "HgN/A
2:00 PM39 °FChilly.7 mph95%29.00 "HgN/A
1:00 PM39 °FLow clouds.5 mph92%29.06 "Hg16 mi
12:00 PM39 °FChilly.6 mph90%29.12 "HgN/A
11:00 AM39 °FChilly.7 mph94%29.15 "HgN/A
10:00 AM38 °FLow clouds.6 mph98%29.18 "Hg40 mi
9:00 AM36 °FChilly.2 mph98%29.23 "HgN/A
8:00 AM36 °FChilly.3 mph98%29.26 "HgN/A
7:00 AM35 °FLow clouds.1 mph98%29.32 "Hg19 mi
6:00 AM34 °FChilly.No wind96%29.38 "HgN/A
5:00 AM34 °FChilly.No wind96%29.41 "HgN/A
4:00 AM33 °FLow clouds.No wind96%29.44 "Hg43 mi
3:00 AM33 °FChilly.2 mph95%29.47 "HgN/A
2:00 AM33 °FChilly.1 mph93%29.54 "HgN/A
1:00 AM31 °FOvercast.1 mph93%29.58 "Hg43 mi
12:00 AM30 °FChilly.No wind93%29.61 "HgN/A
11:00 PM
Jan 27
30 °FChilly.1 mph93%29.64 "HgN/A
10:00 PM29 °FOvercast.1 mph95%29.67 "Hg43 mi
9:00 PM30 °FChilly.1 mph94%29.70 "HgN/A
8:00 PM31 °FChilly.1 mph91%29.74 "HgN/A
7:00 PM32 °FOvercast.2 mph86%29.76 "Hg43 mi
6:00 PM32 °FChilly.1 mph88%29.78 "HgN/A
5:00 PM31 °FChilly.No wind84%29.80 "HgN/A
Weather by CustomWeather, © 2014

See weather overviewHow to use our weather pages